Miscellaneous Local Product
Issued by NWS North Platte, NE

Home | Current Version | Previous Version | Graphics & Text | Print | Product List | Glossary On
Versions: 1 2 3 4 5 6 7 8 9 10 11 12 13 14 15 16 17 18 19 20 21 22 23 24 25 26 27 28 29 30 31 32 33 34 35 36 37 38 39 40 41 42 43 44 45 46 47 48 49 50
000
AXUS43 KLBF 290310
MISLBF


WESTERN AND NORTH CENTRAL NEBRASKA HOURLY WEATHER ROUNDUP
NATIONAL WEATHER SERVICE NORTH PLATTE NE
900 PM CST WED JAN 28 2015

***STATIONS NOT REPORTING VARIABLES SUCH AS SKY/WEATHER OR
PRESSURE ARE PROVIDED BY THE NEBRASKA DEPARTMENT OF
ROADS...RAWS...AND APRS NETWORKS...AND ARE NOT UNDER
NATIONAL WEATHER SERVICE QUALITY CONTROL***

...OBSERVATIONS IN AND NEAR THE EASTERN PANHANDLE OF NEBRASKA...

CITY           SKY/WX    TMP DP  RH WIND       PRES   REMARKS
PINE RIDGE     CLEAR     35  28  75 N22G35    30.21R WCI  23
CHADRON        CLEAR     39  28  64 NW7       30.21R WCI  34
ALLIANCE       CLEAR     41  28  60 NW20G26   30.16R
SIDNEY         CLEAR     39  34  82 NW15      30.19R WCI  31
WHITECLAY        N/A     33  27  79 W18         N/A  WCI  22
CRESCENT LAKE    N/A     38  30  72 NW10        N/A  WCI  31
LISCO            N/A     38  30  73 W13         N/A  WCI  30
LEWELLEN         N/A     42  31  63 W12         N/A
$$

...OBSERVATIONS IN NORTH CENTRAL NEBRASKA...

CITY           SKY/WX    TMP DP  RH WIND       PRES   REMARKS
VALENTINE      CLOUDY    37  30  75 N26G40    30.12R WCI  25
THEDFORD       PTCLDY    46  33  61 NW18G26   30.07R
AINSWORTH      CLOUDY    41  32  71 N28G37    30.07R
O`NEILL        CLOUDY    46  36  68 NW31G41   30.00R
ORD            LGT RAIN  49  35  58 NW22G37   29.96R
BROKEN BOW     PTCLDY    51  30  44 NW20G30   29.99R
BROWNLEE         N/A     44  33  66 NW31        N/A
VALENTINE NWR    N/A     44  29  54 N20G29      N/A
SPRINGVIEW       N/A     39  31  75 NW20G35     N/A  WCI  29
BREWSTER         N/A     48  32  53 E24         N/A
ROSE             N/A     44  36  73 W24         N/A
NEWPORT          N/A     40  34  77 NW35        N/A  WCI  28
SARGENT          N/A     49  33  55 NW6G15      N/A
COMSTOCK         N/A     54  33  43 NW16        N/A
CHAMBERS         N/A     46  32  58 W10G20      N/A
EWING            N/A     45  38  76 N12G21      N/A
$$

...OBSERVATIONS IN SOUTHWEST NEBRASKA AND FAR NORTHEAST COLORADO...

CITY           SKY/WX    TMP DP  RH WIND       PRES   REMARKS
WRAY           FAIR      43  36  76 W9        30.17R
HOLYOKE        FAIR      43  36  75 NW13      30.16R
IMPERIAL       CLEAR     45  32  60 NW14      30.13R
OGALLALA       PTCLDY    41  32  71 NW10      30.12R
NORTH PLATTE   PTCLDY    44  34  67 NW13      30.07R
MCCOOK         CLEAR     46  29  51 W12       30.07R
LEXINGTON      CLEAR     50  32  50 NW15      30.00R
BRADY            N/A     48  34  59 SW3G17      N/A
GOTHENBURG       N/A     48  31  51 NW10        N/A
CALLAWAY         N/A     46  34  63 NW12        N/A
$$

...NORTH PLATTE AREA...

CITY           SKY/WX    TMP DP  RH WIND       PRES   REMARKS
AIRPORT        PTCLDY    44  34  67 NW13      30.07R
DOWNTOWN         N/A     46  36  67 NW5G13      N/A
$$

...SOME WEATHER OBSERVATIONS FROM AROUND THE REGION...

CITY           SKY/WX    TMP DP  RH WIND       PRES   REMARKS
DENVER         PTCLDY    36  32  85 E9        30.23R WCI  29
LARAMIE        FLURRIES  33  31  92 NW12      30.26R WCI  24
CHEYENNE       LGT RAIN  38  30  73 N17G25    30.26R WCI  28
SCOTTSBLUFF    PTCLDY    36  32  85 NW6       30.21R WCI  31
RAPID CITY     CLEAR     34  28  79 N25       30.22R WCI  21
PIERRE         CLOUDY    36  29  75 NW31G37   30.12R WCI  23
WINNER         CLOUDY    37  30  75 NW31G45   30.12R WCI  24
SIOUX FALLS    CLOUDY    38  34  85 NW20G25   29.87R WCI  28
OMAHA          MOCLDY    49  38  65 NW25G40   29.79R
GRAND ISLAND   CLOUDY    54  31  41 NW21G31   29.93R
KANSAS CITY    MOCLDY    56  37  49 SW7       29.76R
WICHITA        MOCLDY    55  33  43 W10       29.91R
HAYS           CLEAR     57  27  30 NW20G26   30.01R
LIBERAL        PTCLDY    48  28  46 NW12      30.12R
GOODLAND       CLEAR     44  35  70 NW17G26   30.16R
$$



USA.gov is the U.S. government's official web portal to all federal, state and local government web resources and services.